ISARA (43050 NORAD) Tracking and Keplerian Element Data

This shows tracking and keplerian element data for the satellite.

Feedback or suggestion? Click here.




ElementValue
Catalog43050
NameISARA
Epoch Orbit5345
Epoch Day323.12971189
Epoch Year2018
RAAN4.4396
Inclination51.64
Eccentricity0.0002657
Argument of Perigee116.3414
Mean Anonmoly243.7845
Mean Motion15.41090009
Decay Rate5.606E-05
L11 43050U 17071P 18323.12971189 .00005606 00000-0 14295-3 0 9994
L22 43050 51.6400 4.4396 0002657 116.3414 243.7845 15.41090009 53455

Live tracking and technical data element details for ISARA (NORAD 43050). ISARA can be tracked NOW for your location showing map with azimuth and elevation plus other details from your city location.

Track the satellite on the map from your city or location and see movement details for azimuth, elevation, latitude, longitude, range, height, and movement on the map or in text.







IsCatalogInMostPopularTable: catalog: 43050, numindb: 133
Update: records affected: 1



GetName: 43050 ISARA

Hit Count: updated at: Mon, 19 Nov 2018 23:36:01 GMT